This is the latest recevied weather packets stored in our database for station/object W0VI. If no packets are shown the sender has not sent any weather packets the latest 1 day(s).
| Time | Temp. | Humidity | Pressure | Rain* | Wind** | Luminosity | Snow |
|---|---|---|---|---|---|---|---|
| 1777995283 | 7.78° C | 45% | 1011.1 hPa | 0 mm | 2.24 m/s, 332° | 711 W/m² | - |
| 1777994980 | 6.67° C | 46% | 1011.1 hPa | 0 mm | 3.58 m/s, 308° | 720 W/m² | - |
| 1777994678 | 7.22° C | 46% | 1011.1 hPa | 0 mm | 1.34 m/s, 304° | 697 W/m² | - |
| 1777994377 | 7.22° C | 45% | 1011.2 hPa | 0 mm | 3.58 m/s, 303° | 648 W/m² | - |
| 1777994073 | 7.22° C | 45% | 1011.2 hPa | 0 mm | 3.58 m/s, 315° | 634 W/m² | - |
| 1777993771 | 6.67° C | 47% | 1011 hPa | 0 mm | 2.24 m/s, 25° | 602 W/m² | - |
| 1777993468 | 6.67° C | 47% | 1011.1 hPa | 0 mm | 1.34 m/s, 317° | 570 W/m² | - |
| 1777993167 | 6.67° C | 47% | 1010.9 hPa | 0 mm | 2.68 m/s, 287° | 555 W/m² | - |
| 1777992865 | 7.22° C | 46% | 1010.8 hPa | 0 mm | 2.68 m/s, 274° | 524 W/m² | - |
| 1777992563 | 7.22° C | 48% | 1010.8 hPa | 0 mm | 0.89 m/s, 312° | 529 W/m² | - |
| 1777992261 | 6.67° C | 47% | 1010.9 hPa | 0 mm | 1.34 m/s, 328° | 495 W/m² | - |
| 1777991958 | 6.11° C | 48% | 1010.9 hPa | 0 mm | 2.24 m/s, 313° | 503 W/m² | - |
| 1777991656 | 6.67° C | 49% | 1010.9 hPa | 0 mm | 1.34 m/s, 326° | 510 W/m² | - |
| 1777991352 | 5.56° C | 49% | 1010.8 hPa | 0 mm | 1.79 m/s, 328° | 495 W/m² | - |
| 1777991050 | 5.56° C | 48% | 1010.8 hPa | 0 mm | 3.58 m/s, 262° | 470 W/m² | - |
| 1777990747 | 5.56° C | 49% | 1010.8 hPa | 0 mm | 1.34 m/s, 326° | 419 W/m² | - |
| 1777990444 | 5.56° C | 48% | 1011 hPa | 0 mm | 0.89 m/s, 345° | 389 W/m² | - |
| 1777990141 | 6.11° C | 48% | 1010.7 hPa | 0 mm | 0.89 m/s, 303° | 354 W/m² | - |
| 1777989838 | 5.56° C | 48% | 1010.6 hPa | 0 mm | 1.34 m/s, 318° | 363 W/m² | - |
| 1777989535 | 5° C | 49% | 1010.7 hPa | 0 mm | 1.34 m/s, 288° | 343 W/m² | - |
| 1777989231 | 5.56° C | 48% | 1010.5 hPa | 0 mm | 3.13 m/s, 230° | 347 W/m² | - |
| 1777988927 | 5.56° C | 48% | 1010.5 hPa | 0 mm | 1.34 m/s, 302° | 327 W/m² | - |
| 1777988624 | 5.56° C | 49% | 1010.6 hPa | 0 mm | 1.34 m/s, 293° | 313 W/m² | - |
| 1777988320 | 5° C | 49% | 1010.3 hPa | 0 mm | 2.68 m/s, 274° | 311 W/m² | - |
| 1777988018 | 5° C | 48% | 1010.5 hPa | 0 mm | 3.13 m/s, 324° | 274 W/m² | - |
* Rain latest hour (hover to see other rain measurements)
** Current wind speed in m/s (hover to see current wind gust speed)